Home > Weather > Moscow > Past weeks

Flag for USA Weather for the Past 2 Weeks in Moscow, Idaho, USA

Now
54 °F

Clear.


Feels Like: 54 °F
Forecast: 46 / 74 °F
Wind: No wind

Location: Pullman / Moscow Regional Airport

Current Time: May 1, 2016 at 11:10:30 PM

Latest Report: May 1, 2016 at 9:53 PM


Visibility: 10 mi

Pressure: 30.08 "Hg (27.39 "Hg at 781m altitude)

Humidity: 74%

Dew Point: 46 °F

Location of MoscowLocation

Historic Weather in Moscow — Graph

°F

Moscow Temperature Yesterday

Maximum temperature yesterday: 57 °F (at 4:53 PM)
Minimum temperature yesterday: 42 °F (at 11:53 PM)
Average temperature yesterday: 48 °F

High & Low Weather Summary for the Past Weeks

 TemperatureHumidityPressure
High82 °F (Apr 20, 4:53 PM)93% (Apr 29, 10:53 AM)30.39 "Hg (Apr 29, 10:53 AM)
Low35 °F (Apr 25, 5:53 AM)11% (Apr 18, 3:53 PM)29.53 "Hg (Apr 22, 3:53 AM)
Average54 °F61%30.00 "Hg
* Reported Apr 16 9:53 PM — May 1 9:53 PM, Moscow, Weather by CustomWeather, © 2016

Note: Actual official high and low records may vary slightly from our data, if they occured in-between our weather recording intervals... More about our weather records

Advertising

Moscow Weather History for the Previous 24 Hours

Scroll right to see more
 ConditionsComfort  
Time TempWeatherWind HumidityBarometerVisibility
9:53 PM
Sun, May 1
54 °FClear.No wind74%30.08 "Hg10 mi
8:53 PM56 °FSunny.No wind72%30.07 "Hg10 mi
7:53 PM63 °FSunny.No wind54%30.05 "Hg10 mi
6:53 PM67 °FSunny.5 mph42%30.05 "Hg10 mi
5:53 PM69 °FSunny.9 mph35%30.06 "Hg10 mi
4:53 PM69 °FSunny.8 mph36%30.08 "Hg10 mi
3:53 PM69 °FSunny.10 mph38%30.09 "Hg10 mi
2:53 PM67 °FSunny.10 mph41%30.11 "Hg10 mi
1:53 PM66 °FSunny.10 mph43%30.13 "Hg10 mi
12:53 PM64 °FSunny.7 mph41%30.15 "Hg10 mi
11:53 AM62 °FSunny.9 mph43%30.18 "Hg10 mi
10:53 AM61 °FSunny.12 mph46%30.19 "Hg10 mi
9:53 AM60 °FSunny.13 mph46%30.20 "Hg10 mi
8:53 AM57 °FSunny.9 mph55%30.23 "Hg10 mi
7:53 AM50 °FSunny.3 mph77%30.24 "Hg10 mi
6:53 AM46 °FSunny.No wind83%30.24 "Hg10 mi
5:53 AM42 °FClear.No wind85%30.24 "Hg10 mi
4:53 AM39 °FClear.No wind89%30.24 "Hg10 mi
3:53 AM38 °FClear.No wind93%30.25 "Hg10 mi
2:53 AM39 °FClear.No wind93%30.25 "Hg10 mi
1:53 AM41 °FClear.No wind93%30.25 "Hg10 mi
12:53 AM41 °FClear.No wind93%30.27 "Hg10 mi
11:53 PM
Sat, Apr 30
42 °FClear.No wind92%30.27 "Hg10 mi
Weather by CustomWeather, © 2016

See weather overviewHow to use our weather pages